027  
AXUS43 KLBF 272110  
MISLBF  
 
WESTERN AND NORTH CENTRAL NEBRASKA HOURLY WEATHER ROUNDUP  
NATIONAL WEATHER SERVICE NORTH PLATTE NE  
300 PM CST THU FEB 27 2020  
 
NOTE: "FAIR" INDICATES FEW OR NO CLOUDS BELOW 12,000 FEET WITH NO  
SIGNIFICANT WEATHER AND/OR OBSTRUCTIONS TO VISIBILITY.  
 
NOTE: STATIONS NOT REPORTING SKY/WEATHER AND PRESSURE ARE  
PROVIDED BY RAWS AND APRS NETWORKS AND ARE NOT UNDER NATIONAL  
WEATHER SERVICE QUALITY CONTROL.  
   
..OBSERVATIONS IN AND NEAR THE EASTERN PANHANDLE OF NEBRASKA
 
 
 
CITY SKY/WX TMP DP RH WIND PRES REMARKS  
PINE RIDGE FAIR 36 28 73 SW7 30.17F  
GORDON FAIR 36 30 79 W9 30.15F  
CHADRON FAIR 40 29 64 NW16G22 30.18F  
ALLIANCE FAIR 40 24 53 NW24G32 30.16F  
SIDNEY PTSUNNY 42 20 41 N23G39 30.17F  
CRESCENT LAKE N/A 40 29 64 NW13G20 N/A  

 
   
..OBSERVATIONS IN NORTHERN NEBRASKA AND FAR SOUTHERN SOUTH DAKOTA
 
 
 
CITY SKY/WX TMP DP RH WIND PRES REMARKS  
WINNER CLOUDY 41 24 51 NW17 30.12F  
VALENTINE FAIR 43 25 49 NW16G29 30.13F  
AINSWORTH PTSUNNY 41 26 55 NW15G21 30.13F  
O'NEILL CLOUDY 36 25 64 NW14G20 30.15R  
THEDFORD PTSUNNY 39 30 69 NW21 30.16S  
BROKEN BOW CLOUDY 39 26 59 NW18 30.15R  
ORD LGT RAIN 39 25 57 N17 30.13S  
ALBION CLOUDY 38 26 62 NW14G20 30.14R  
EWING N/A 35 27 74 NW13 N/A  
CHAMBERS N/A 36 27 69 W3G12 N/A  
BUTTE N/A 34 27 76 W9 N/A  
SPRINGVIEW N/A 42 26 52 W13G20 N/A  
VALENTINE NWR N/A 39 26 60 NW15G23 N/A  
HALSEY N/A 39 27 62 NW9G17 N/A  

 
   
..OBSERVATIONS IN SOUTHWEST NEBRASKA AND FAR NORTHEAST COLORADO
 
 
 
CITY SKY/WX TMP DP RH WIND PRES REMARKS  
WRAY FAIR 48 19 32 N28G44 30.20S  
HOLYOKE FAIR 48 21 34 N24G33 30.19  
IMPERIAL PTSUNNY 44 25 47 N20G31 30.19S  
OGALLALA FAIR 44 27 50 NW23G32 30.18S  
NORTH PLATTE FAIR 43 30 60 N15 30.18R  
MCCOOK CLOUDY 38 33 82 N10 30.20R  
LEXINGTON CLOUDY 37 32 81 NW18 30.19R  
CALLAWAY N/A 37 32 83 NW20 N/A  
STAPLETON N/A 37 29 74 N5G12 N/A  

 
   
..OBSERVATIONS IN CENTRAL LINCOLN COUNTY AREA
 
 
 
CITY SKY/WX TMP DP RH WIND PRES REMARKS  
N.P. AIRPORT FAIR 43 30 60 N15 30.18R  
N.P. HILLCREST N/A 40 31 71 NW14G22 N/A  
N.P. DOWNTOWN N/A 41 30 64 NW7G14 N/A  
N.P. SOUTHEAST N/A 40 28 63 N9G20 N/A  

 
   
..OBSERVATIONS ACROSS THE ROCKIES AND WESTERN HIGH PLAINS
 
 
 
CITY SKY/WX TMP DP RH WIND PRES REMARKS  
SCOTTSBLUFF FAIR 45 18 34 NW25G40 30.19F  
KIMBALL FAIR 40 20 44 NW15G29 30.21S  
CHEYENNE CLOUDY 39 13 34 NW24G31 30.17F  
DENVER PTSUNNY 47 14 26 NW8 30.18F  
STEAMBOAT FAIR 34 15 45 N5 30.32  
COPPER MTN FAIR 19 9 63 W31G44 30.24 WCI 0  
LEADVILLE FAIR 26 5 40 NW17G30 30.28S WCI 13  
ASPEN FAIR 37 11 34 N7 30.32F  
GUNNISON FAIR 38 12 34 E5 30.34F  
TELLURIDE FAIR 36 5 27 W14 30.37  
LARAMIE FAIR 37 7 28 W29G38 30.18S  
CASPER FAIR 35 22 58 SW18G25 30.21F  
SHERIDAN FAIR 41 20 43 NW18 30.17F  
JACKSON PTSUNNY 29 16 58 SE8 30.33F  
YELLOWSTONE N/A 31 9 39 MISG 30.30F  

 
   
..OBSERVATIONS ACROSS THE NORTHERN PLAINS
 
 
 
CITY SKY/WX TMP DP RH WIND PRES REMARKS  
RAPID CITY FAIR 37 27 67 N9 30.13F  
PIERRE CLOUDY 40 29 64 W16 30.10F  
SIOUX FALLS PTSUNNY 30 17 58 W8 30.12F  
ABERDEEN LGT SNOW 23 19 85 S7 30.10F FOG WCI 15  
DICKINSON FAIR 39 30 70 W17 30.02F  
BISMARCK LGT RAIN 35 31 85 N10G20 30.03F  
FARGO CLOUDY 16 9 74 S5 30.13F WCI 9  

 
   
..OBSERVATIONS ACROSS THE CENTRAL AND SOUTHERN PLAINS
 
 
 
CITY SKY/WX TMP DP RH WIND PRES REMARKS  
GRAND ISLAND CLOUDY 40 26 57 N17 30.14S  
LINCOLN PTSUNNY 43 21 41 NW10G20 30.14S  
OMAHA PTSUNNY 40 21 46 N9 30.13S  
DES MOINES PTSUNNY 38 16 40 MISG 30.11S  
KANSAS CITY CLOUDY 45 23 42 NW10 30.09S  
WICHITA PTSUNNY 50 29 44 SW9 30.12F  
DODGE CITY PTSUNNY 51 33 50 NW23G33 30.15S  
OKLAHOMA CITY PTSUNNY 60 21 22 SW9 30.15F  
DALLAS FAIR 59 21 23 SW8G16 30.26F  
AMARILLO FAIR 60 14 16 N18G28 30.16F  

 
 
 
CLICK HERE TO GO TO PREVIOUS BULLETINS.

The Nexlab NE Page Main Text Page